[[{"header":{"parameterUnit":"m.s-1","parameterCategory":1,"la1":30.2991,"la2":30.254,"lo1":-89.0895,"lo2":-89.0444,"dy":0.0017,"dx":0.0017,"nx":28,"ny":28,"refTime":"2024-03-31T03:00:00:Z","depth":0,"parameterNumber":2,"parameterNumberName":"U-component_of_WINDS"},"data":[0,0,0,0,0,0,0,0,0,0,0,0,0,0,0,0,0,0,0,0,0,0,0,0,0,0,0,0,0,0,0,0,0,0,0,0,0,0,0,0,0,0,0,0,0,0,0,0,0,0,0,0,0,0,0,0,0,0,-0.972,-0.972,0,-0.9734,-0.9734,-0.9734,-0.9714,-0.9713,-0.9712,-0.9712,-0.9726,-0.9727,-0.9728,0,0,0,0,0,0,0,0,0,0,0,0,0,-0.9676,-0.9677,-0.972,-0.972,-0.972,-0.9734,-0.9734,-0.9734,-0.9714,-0.9713,-0.9712,-0.9711,-0.9726,-0.9727,-0.9728,0,0,0,0,0,0,0,0,0,0,0,0,0,-0.9693,-0.9677,-0.972,-0.9712,-0.9711,-0.9734,-0.9734,-0.9734,-0.9714,-0.9713,-0.9712,-0.9711,-0.9725,-0.9727,-0.9728,-0.9759,0,0,-0.9733,-0.9734,0,0,0,0,0,0,0,0,-0.9692,-0.9694,-0.9713,-0.9712,-0.9712,-0.9721,-0.9724,-0.9743,-0.9714,-0.9713,-0.9712,-0.971,-0.9725,-0.9727,-0.9732,-0.976,-0.9761,-0.9733,-0.9734,-0.9735,-0.9735,0,0,0,0,0,0,0,-0.9691,-0.9694,-0.9725,-0.9713,-0.9713,-0.9707,-0.9709,-0.9727,-0.9725,-0.9713,-0.9712,-0.9714,-0.9725,-0.973,-0.9732,-0.9761,-0.9733,-0.9735,-0.9736,-0.9736,-0.9814,-0.9816,0,0,0,0,0,0,-0.9691,-0.9693,-0.9725,-0.9726,-0.9699,-0.9709,-0.971,-0.9719,-0.9725,-0.9725,-0.9714,-0.9713,-0.9728,-0.973,-0.9732,-0.9768,-0.9735,-0.9736,-0.9737,-0.9813,-0.9815,-0.9816,0,0,0,0,0,0,-0.969,-0.9694,-0.9724,-0.9709,-0.9713,-0.9711,-0.9721,-0.972,-0.9725,-0.9726,-0.9725,-0.972,-0.9727,-0.973,-0.9753,-0.9768,-0.9737,-0.9738,-0.9812,-0.9814,-0.9815,-0.984,0,0,0,0,0,0,-0.9689,-0.9693,-0.9705,-0.9709,-0.9713,-0.9745,-0.9722,-0.9721,-0.9728,-0.9726,-0.9731,-0.9731,-0.9727,-0.975,-0.9754,-0.977,-0.974,-0.9811,-0.9813,-0.9815,-0.9838,-0.9842,-0.9846,0,0,0,0,0,-0.9687,-0.9712,-0.9706,-0.971,-0.9728,-0.9745,-0.9748,-0.9742,-0.973,-0.9741,-0.9741,-0.9731,-0.9766,-0.9753,-0.9757,-0.9773,-0.981,-0.9812,-0.9815,-0.9836,-0.9842,-0.9846,0,0,0,0,0,0,-0.971,-0.9712,-0.9706,-0.9733,-0.9739,-0.9742,-0.9757,-0.9748,-0.9758,-0.9756,-0.9749,-0.975,-0.9774,-0.9776,-0.9761,-0.9803,-0.9786,-0.9789,-0.9801,-0.9806,-0.981,-0.9808,-0.9741,0,0,0,0,0,-0.9718,-0.9732,-0.9733,-0.9757,-0.9761,-0.9758,-0.9766,-0.9761,-0.9767,-0.9769,-0.9771,-0.9778,-0.979,-0.9798,-0.981,-0.9839,-0.9839,-0.9852,-0.9856,-0.986,-0.9862,-0.9877,-0.9882,-0.9824,-0.9824,-0.9824,0,0,-0.9735,-0.9738,-0.9747,-0.9762,-0.9766,-0.978,-0.976,-0.9777,-0.9787,-0.9772,-0.9793,-0.9794,-0.9801,-0.9827,-0.9838,-0.9829,-0.9879,-0.9863,-0.9866,-0.9866,-0.988,-0.9885,-0.989,-0.9826,-0.9826,-0.9826,0,0,-0.9773,-0.9777,-0.9796,-0.9801,-0.9808,-0.9806,-0.9811,-0.9815,-0.9815,-0.9836,-0.9825,-0.9838,-0.9859,-0.9864,-0.987,-0.9909,-0.99,-0.9914,-0.9935,-0.9949,-0.9954,-0.9958,-0.9971,-0.9975,-0.9916,-0.9917,-0.9917,0,-0.9793,-0.9814,-0.9808,-0.9824,-0.983,-0.9818,-0.9837,-0.9842,-0.9852,-0.9857,-0.9847,-0.9874,-0.9878,-0.9903,-0.9913,-0.9918,-0.9923,-0.9912,-0.9954,-0.9958,-0.9961,-0.9973,-0.9978,-0.9918,-0.9918,-0.9918,-0.9918,0,-0.9837,-0.9852,-0.9867,-0.9877,-0.9885,-0.9903,-0.99,-0.9909,-0.9903,-0.9903,-0.9924,-0.9928,-0.994,-0.9946,-0.9941,-0.9971,-0.9965,-0.9955,-0.9937,-0.9968,-0.9979,-0.9984,-0.992,-0.992,-0.9919,-0.9919,0,0,-0.9889,-0.9895,-0.9901,-0.9904,-0.9911,-0.9922,-0.9939,-0.9951,-0.9958,-0.9966,-0.9979,-0.9998,-0.9989,-0.9995,-0.999,-1.0003,-1.0033,-0.9991,-0.9991,-0.9997,-1.0065,-1.0071,-1.0077,-1.0027,-1.0028,-1.0029,-1.0064,0,-0.9925,-0.9955,-0.995,-0.9979,-0.9991,-0.998,-0.9995,-1.0,-1.0,-1.0011,-1.0011,-1.0024,-1.0011,-1.0014,-1.0026,-1.0027,-1.0046,-1.0024,-1.0039,-1.004,-1.0036,-1.0083,-1.009,-1.0123,-1.0068,-1.0069,-1.0069,0,-0.9972,-0.998,-1.001,-1.0014,-1.0019,-1.0033,-1.0042,-1.0053,-1.0059,-1.0058,-1.0065,-1.0058,-1.0075,-1.0058,-1.0081,-1.0066,-1.0073,-1.0074,-1.0075,-1.0075,-1.0055,-1.0083,-1.0133,-1.0137,-1.0077,-1.0076,-1.0076,0,-1.0005,-1.0024,-1.0044,-1.0048,-1.0053,-1.0063,-1.0065,-1.007,-1.0077,-1.0086,-1.009,-1.0101,-1.0106,-1.0115,-1.0111,-1.0099,-1.0134,-1.0117,-1.0133,-1.0133,-1.014,-1.0139,-1.0191,-1.0147,-1.0147,-1.0146,-1.0146,0,-1.0045,-1.0063,-1.0058,-1.0071,-1.0091,-1.0085,-1.0105,-1.0106,-1.0111,-1.0123,-1.0114,-1.0125,-1.012,-1.0132,-1.0129,-1.0148,-1.0151,-1.015,-1.0149,-1.015,-1.015,-1.0153,-1.015,-1.0148,-1.0147,-1.0147,-1.0147,0,-1.0084,-1.0082,-1.0103,-1.0106,-1.0107,-1.0122,-1.0124,-1.0135,-1.0135,-1.015,-1.0153,-1.0152,-1.0165,-1.0162,-1.0177,-1.0175,-1.0198,-1.0195,-1.0196,-1.0194,-1.021,-1.0208,-1.0264,-1.027,-1.0223,-1.0224,-1.0224,0,-1.011,-1.0123,-1.0128,-1.0135,-1.0138,-1.015,-1.0157,-1.0152,-1.0159,-1.0167,-1.0177,-1.0189,-1.0198,-1.0219,-1.0219,-1.023,-1.0226,-1.0245,-1.0227,-1.0228,-1.0224,-1.0223,-1.0224,-1.0248,-1.0248,-1.0249,-1.0249,0,-1.0154,-1.0152,-1.0162,-1.0171,-1.018,-1.0187,-1.0194,-1.02,-1.0196,-1.0205,-1.0217,-1.0224,-1.0238,-1.025,-1.026,-1.0263,-1.0255,-1.0255,-1.0259,-1.0259,-1.0258,-1.0257,-1.0203,-1.0253,-1.0253,-1.0252,-1.0252,-1.0252,-1.0186,-1.0197,-1.0201,-1.0213,-1.0217,-1.0223,-1.0234,-1.0234,-1.0244,-1.0255,-1.0252,-1.0266,-1.0271,-1.0284,-1.0288,-1.0299,-1.0292,-1.0298,-1.0299,-1.03,-1.0301,-1.0258,-1.0301,-1.0301,-1.0301,-1.03,-1.03,0,-1.0228,-1.0231,-1.0241,-1.025,-1.0259,-1.0251,-1.0258,-1.0266,-1.0278,-1.0284,-1.0292,-1.0307,-1.0318,-1.0319,-1.033,-1.0338,-1.0335,-1.0341,-1.034,-1.034,-1.0308,-1.0303,-1.0344,-1.0344,-1.0344,-1.0343,-1.0343,-1.0343,-1.0251,-1.0269,-1.0268,-1.0288,-1.029,-1.0303,-1.0308,-1.0313,-1.0317,-1.0333,-1.0342,-1.0343,-1.0347,-1.0358,-1.0368,-1.0368,-1.0372,-1.0379,-1.0378,-1.0347,-1.0343,-1.0338,-1.0333,-1.038,-1.038,-1.0409,-1.0409,-1.0409]},{"header":{"parameterUnit":"m.s-1","parameterCategory":1,"la1":30.2991,"la2":30.254,"lo1":-89.0895,"lo2":-89.0444,"dy":0.0017,"dx":0.0017,"nx":28,"ny":28,"refTime":"2024-03-31T03:00:00:Z","depth":0,"parameterNumber":3,"parameterNumberName":"V-component_of_WINDS"},"data":[0,0,0,0,0,0,0,0,0,0,0,0,0,0,0,0,0,0,0,0,0,0,0,0,0,0,0,0,0,0,0,0,0,0,0,0,0,0,0,0,0,0,0,0,0,0,0,0,0,0,0,0,0,0,0,0,0,0,2.9247,2.9247,0,2.9312,2.9313,2.9313,2.9357,2.9358,2.9358,2.9358,2.9427,2.9428,2.943,0,0,0,0,0,0,0,0,0,0,0,0,0,2.9162,2.9163,2.9246,2.9247,2.9248,2.9312,2.9313,2.9314,2.9357,2.9358,2.9358,2.9358,2.9426,2.9428,2.943,0,0,0,0,0,0,0,0,0,0,0,0,0,2.921,2.9163,2.9246,2.9278,2.9281,2.9312,2.9313,2.9314,2.9357,2.9358,2.9358,2.9359,2.9426,2.9428,2.943,2.9436,0,0,2.9437,2.9438,0,0,0,0,0,0,0,0,2.9207,2.9213,2.9272,2.9275,2.9279,2.9327,2.9308,2.9355,2.9357,2.9328,2.9358,2.9359,2.9393,2.9398,2.941,2.9439,2.9442,2.9438,2.9439,2.944,2.9441,0,0,0,0,0,0,0,2.9204,2.921,2.9272,2.9273,2.9277,2.9289,2.9296,2.9317,2.9358,2.9331,2.9334,2.9341,2.9395,2.9407,2.9412,2.9443,2.9438,2.944,2.9441,2.9442,2.9481,2.9481,0,0,0,0,0,0,2.9195,2.9207,2.927,2.9274,2.9243,2.929,2.9298,2.9311,2.9357,2.9365,2.9341,2.9343,2.9403,2.9409,2.9414,2.9425,2.944,2.9442,2.9444,2.9481,2.9481,2.9481,0,0,0,0,0,0,2.9193,2.92,2.9268,2.9242,2.9251,2.9291,2.9305,2.9312,2.9324,2.9365,2.9373,2.9345,2.9404,2.9411,2.943,2.9428,2.9443,2.9445,2.9482,2.9481,2.9481,2.9445,0,0,0,0,0,0,2.919,2.9199,2.9201,2.9241,2.9252,2.9282,2.9305,2.9313,2.9328,2.9332,2.9371,2.9378,2.9405,2.9427,2.9433,2.9431,2.9447,2.9482,2.9482,2.9481,2.9446,2.9443,2.944,0,0,0,0,0,2.9187,2.9188,2.9201,2.9208,2.9255,2.9282,2.9288,2.9318,2.9327,2.933,2.9357,2.9377,2.9427,2.9428,2.9435,2.9434,2.9483,2.9482,2.9481,2.9448,2.9444,2.944,0,0,0,0,0,0,2.9147,2.9194,2.9209,2.9223,2.9248,2.9289,2.9293,2.9312,2.9335,2.9338,2.9374,2.9383,2.9399,2.9419,2.9419,2.9443,2.9457,2.9458,2.9429,2.9426,2.9423,2.9418,2.9449,0,0,0,0,0,2.914,2.9156,2.9197,2.9205,2.9217,2.9253,2.9265,2.9286,2.9314,2.9325,2.9352,2.9379,2.9401,2.9414,2.9436,2.9449,2.9459,2.9452,2.9449,2.9446,2.9447,2.9456,2.9454,2.9478,2.9478,2.9478,0,0,2.9125,2.9153,2.9161,2.9198,2.922,2.9237,2.9262,2.9278,2.9292,2.9328,2.9348,2.9369,2.9401,2.9417,2.9426,2.9434,2.9442,2.9445,2.9443,2.9445,2.9455,2.9453,2.9451,2.9478,2.9478,2.9478,0,0,2.9107,2.9129,2.914,2.9161,2.9194,2.9217,2.922,2.9258,2.9274,2.9294,2.9322,2.9338,2.9375,2.9397,2.9413,2.9404,2.9424,2.941,2.9394,2.9403,2.9401,2.94,2.9398,2.9397,2.941,2.941,2.941,0,2.9085,2.9112,2.9142,2.9158,2.9174,2.9207,2.9218,2.9237,2.9276,2.9286,2.9295,2.9342,2.9366,2.9388,2.9386,2.9397,2.9402,2.9406,2.9399,2.9398,2.9397,2.9395,2.9394,2.9408,2.9408,2.9409,2.9409,0,2.9083,2.9101,2.9106,2.9142,2.9158,2.9171,2.9205,2.9218,2.9238,2.9261,2.9282,2.9312,2.9341,2.9348,2.9367,2.9373,2.9378,2.9392,2.9407,2.9392,2.9392,2.9391,2.9406,2.9406,2.9407,2.9407,0,0,2.9042,2.9095,2.9097,2.9114,2.9153,2.9168,2.9183,2.9211,2.9222,2.9248,2.9262,2.9292,2.9306,2.9324,2.9346,2.9354,2.9346,2.9367,2.9369,2.9364,2.9357,2.9346,2.9345,2.9359,2.9359,2.9359,2.9354,0,2.9031,2.906,2.9088,2.9107,2.9125,2.9156,2.917,2.9195,2.9218,2.9236,2.9261,2.9282,2.9298,2.931,2.9318,2.9345,2.9346,2.9346,2.9374,2.9375,2.9366,2.9345,2.9334,2.9328,2.9354,2.9354,2.9354,0,2.9022,2.9046,2.9067,2.9105,2.9113,2.9125,2.9154,2.9171,2.9201,2.9217,2.9237,2.926,2.9279,2.9291,2.9318,2.9317,2.9331,2.9346,2.9346,2.9351,2.9364,2.935,2.9326,2.9326,2.9354,2.9354,2.9354,0,2.8992,2.9029,2.9047,2.906,2.9105,2.9112,2.9131,2.9162,2.9177,2.9202,2.9213,2.924,2.9255,2.9276,2.9306,2.9312,2.933,2.9345,2.9345,2.9344,2.9348,2.9347,2.9327,2.9354,2.9354,2.9354,2.9354,0,2.8977,2.8989,2.9034,2.9044,2.9059,2.9092,2.9105,2.9127,2.9154,2.917,2.9199,2.9214,2.9252,2.9272,2.9296,2.9315,2.9321,2.9335,2.9342,2.9333,2.9332,2.9343,2.9345,2.9354,2.9354,2.9354,2.9354,0,2.8946,2.8976,2.8997,2.9038,2.9048,2.9057,2.9092,2.9104,2.9128,2.9148,2.9155,2.9193,2.9217,2.9249,2.9284,2.93,2.9317,2.9326,2.9307,2.9311,2.9309,2.9309,2.9296,2.9297,2.9322,2.9322,2.9322,0,2.8935,2.8945,2.8986,2.8999,2.9017,2.9037,2.9053,2.9086,2.9102,2.9137,2.9146,2.9172,2.9196,2.9234,2.9265,2.9291,2.9302,2.9296,2.9307,2.9298,2.9304,2.9303,2.9305,2.9294,2.9293,2.9293,2.9292,0,2.8913,2.8927,2.8949,2.8977,2.8995,2.9018,2.9043,2.9052,2.909,2.9106,2.9132,2.915,2.9186,2.9212,2.9243,2.9264,2.9285,2.9289,2.929,2.9283,2.9271,2.9279,2.9301,2.9289,2.9289,2.929,2.929,2.929,2.8892,2.8903,2.8934,2.8958,2.898,2.9002,2.9016,2.9041,2.9063,2.9095,2.9113,2.9138,2.9169,2.9213,2.9232,2.9253,2.9261,2.9263,2.9264,2.9264,2.9262,2.9267,2.9259,2.9259,2.9259,2.9259,2.9259,0,2.8873,2.8895,2.8916,2.895,2.8968,2.8986,2.9014,2.9029,2.9051,2.9078,2.91,2.913,2.9156,2.9189,2.9217,2.9228,2.9238,2.9234,2.9234,2.9239,2.9252,2.9249,2.9225,2.9225,2.9225,2.9225,2.9225,2.9225,2.8865,2.8884,2.8903,2.8934,2.8956,2.898,2.8995,2.9016,2.9038,2.907,2.9092,2.9113,2.9143,2.9174,2.9199,2.9208,2.9217,2.9211,2.9223,2.9235,2.9238,2.9241,2.9238,2.9212,2.9212,2.9208,2.9208,2.9208]}]]